Login

Stavanger

Pos Pair Lane Name Born Nation Time
1 6 I Jordan Stolz 2004 USA 1:44.89
2 9 O Connor Howe 2000 Canada 1:46.65
3 8 O Zhongyan Ning 1999 China 1:46.68
4 7 I Peder Kongshaug 2001 Norway 1:46.75
5 2 I Kazuya Yamada 2001 Japan 1:46.90
6 1 O Masaya Yamada 1996 Japan 1:47.12
7 2 O Patrick Roest 1995 Netherlands 1:47.24
8 7 O Bart Swings 1991 Belgium 1:47.30
9 8 I Wesly Dijs 1995 Netherlands 1:47.37
10 5 O Kristian Ulekleiv 1996 Norway 1:47.73
11 4 O Tyson Langelaar 1999 Canada 1:47.76
12 4 I Taiyo Nonomura 2001 Japan 1:47.85
13 3 I Hallgeir Engebråten 1999 Norway 1:47.88
14 10 I Allan Dahl Johansson 1998 Norway 1:48.02
15 1 I Louis Hollaar 1998 Netherlands 1:48.06
16 10 O Thomas Krol 1992 Netherlands 1:48.37
17 5 I Emery Lehman 1996 USA 1:48.47
18 3 O Stefan Emele 1996 Germany 1:49.29
19 9 I Seitaro Ichinohe 1996 Japan 1:49.42
20 6 O Mathias Vosté 1994 Belgium 1:51.15

Info

What World Cup A-group
Discipline 1.500
Host Stavanger
Nation Norway
Date Friday 11.Nov 2022
Calendar 2022/2023
Air Temp 14.0 C
Ice Temp -6.0 C
Humidity 45.0 %